STARLINK-5535 (56356 NORAD) Tracking and Keplerian Element Data

This shows tracking and keplerian element data for the satellite.

Feedback or suggestion? Click here.




ElementValue
Catalog56356
NameSTARLINK-5535
Epoch Orbit181
Epoch Day127.00001157
Epoch Year2023
RAAN126.4757
Inclination97.6636
Eccentricity0.0001443
Argument of Perigee93.3858
Mean Anonmoly239.95
Mean Motion15.68283345
Decay Rate-0.00868095
L11 56356U 23058AR 23127.00001157 -.00868095 00000+0 -86207-2 0 9994
L22 56356 97.6636 126.4757 0001443 93.3858 239.9500 15.68283345 1817



Live tracking and technical data element details for STARLINK-5535 (NORAD 56356). STARLINK-5535 can be tracked NOW for your location showing map with azimuth and elevation plus other details from your city location.







IsCatalogInMostPopularTable: catalog: 56356, numindb: 5
Update: records affected: 1



GetName: 56356 STARLINK-5535

Hit Count: updated at: Sun, 04 Jun 2023 23:29:46 GMT